Location: Femmons
(37.9383°N, 120.0224°W)
Time: 01:05:27
(UTC+00:00)

Daily predictions for brighter satellites

Satellite Brightness Start Highest point End
(mag) Time Altitude Azimuth Time Altitude Azimuth Time Altitude Azimuth
USA 234 3.5 03:48:11 10° NE 03:54:28 48° SE 04:00:43 10° SSW
SJ-6B 4.4 03:52:04 10° SSW 03:55:20 32° W 03:58:37 10° NNW
Terra 3.9 03:56:38 10° E 03:58:40 13° ENE 04:00:42 10° NE
Lacrosse 5 rocket 3.6 03:56:49 10° WNW 03:59:48 19° WSW 04:02:42 10° SSW
Cosmos 1470 4.0 03:58:07 10° NNE 04:01:06 23° ENE 04:04:05 10° SE
CZ-4 R/B 3.0 04:02:14 10° SSW 04:05:49 34° W 04:09:29 10° NNW
Cosmos 2026 Rocket 4.1 03:59:40 10° S 04:05:52 83° W 04:12:00 10° N
KORONAS-FOTON 4.0 04:04:32 10° SSE 04:08:06 47° E 04:11:42 10° NNE
Cosmos 1328 Rocket 4.5 04:06:33 10° SSW 04:10:42 51° W 04:14:54 10° N
CZ-4B R/B 3.7 04:08:03 10° S 04:13:15 60° WSW 04:18:31 10° NNW
Cosmos 1842 3.1 04:10:14 10° S 04:13:49 63° E 04:17:26 10° NNE
IRIDIUM 106 4.3 04:16:03 10° N 04:21:16 73° E 04:26:28 10° S
Cosmos 2360 Rocket 4.2 04:26:42 10° NNE 04:29:56 15° NE 04:33:10 10° E
Cosmos 540 Rocket 3.6 04:24:53 10° N 04:29:57 58° ENE 04:34:02 16° SE
USA 186 4.3 04:28:10 10° SW 04:30:41 20° W 04:33:15 10° NW
ATLAS 2AS CENTAUR R/B 4.4 04:26:28 10° N 04:31:18 20° NE 04:36:00 10° E
In-Cosmos 22 4.5 04:26:05 10° SSE 04:31:30 48° E 04:36:48 10° NNE
Cosmos 1707 2.6 04:34:59 10° S 04:38:35 78° W 04:42:12 10° N
Okean-O 2.6 04:36:10 12° S 04:40:17 84° WSW 04:44:43 10° NNW
Cosmos 2082 Rocket 4.0 04:35:31 10° SW 04:40:42 35° WNW 04:45:55 10° N
SL-16 R/B 3.0 04:36:13 10° N 04:41:26 36° ENE 04:45:05 18° ESE
Cosmos 1515 Rocket 4.4 04:38:33 10° SSW 04:42:44 51° W 04:46:58 10° N
Cosmos 2333 Rocket 4.0 04:39:30 10° N 04:43:24 18° NE 04:47:07 10° E
SeaSat 1 3.2 04:42:03 18° ESE 04:45:16 39° ENE 04:49:50 10° N
Cosmos 2369 4.1 04:39:47 10° NNW 04:45:27 62° WSW 04:50:32 13° S
CZ-4C R/B 3.6 04:43:23 10° N 04:47:31 72° WNW 04:51:35 10° SSW
USA 245 3.9 04:47:48 25° ESE 04:49:15 37° ENE 04:53:01 10° N
Atlas Centaur 2 3.3 04:42:38 10° WSW 04:50:22 50° S 04:56:31 18° ESE
Tiangong -2.2 04:50:35 10° WNW 04:53:44 74° SSW 04:54:54 35° SE
SPOT 5 2.6 04:53:26 19° S 04:56:30 84° W 05:00:52 10° NNW
Cosmos 381 Rocket 4.5 04:50:34 10° NNW 04:56:56 82° ENE 05:01:23 21° SSE
Cosmos 2228 Rocket 3.9 04:56:00 25° SE 04:57:47 35° E 05:01:56 10° NNE
ASTRO E2 4.2 04:57:15 10° SW 04:58:37 17° SSW 04:58:37 17° SSW
Okean O Rocket 3.6 04:56:51 10° SSW 05:00:28 25° W 05:04:05 10° NW
IRS-1A Rocket 4.2 04:57:30 20° SSE 05:01:26 83° ENE 05:06:57 10° NNW
MetOp-B 4.2 04:57:49 17° S 05:02:01 78° WSW 05:07:24 10° NNW
Cosmos 1356 Rocket 4.1 05:01:42 29° SE 05:02:58 36° E 05:06:49 10° NNE
SL-08 ROCKET BODY 4.4 04:58:26 14° S 05:03:48 71° E 05:09:51 10° NNE
Cosmos 1869 Rocket 3.5 05:00:37 10° N 05:05:04 74° E 05:07:23 28° SSE
Cosmos 1400 Rocket 2.6 05:03:49 22° S 05:06:16 81° E 05:10:07 10° N
ERS-1 Rocket 2.9 05:10:39 26° SSE 05:13:34 87° ENE 05:18:36 10° NNW
ATLAS CENTAUR R/B 0.8 05:11:14 12° SSW 05:14:26 89° WNW 05:17:59 10° NNE
S3M 4.0 05:09:07 10° N 05:15:30 79° E 05:19:23 25° SSE
Cosmos 1300 3.2 05:13:40 10° N 05:16:58 35° E 05:17:15 35° E
Cosmos 1441 Rocket 3.8 05:14:38 10° NNW 05:18:09 49° W 05:19:49 27° SSW
Cosmos 841 Rocket 3.5 05:14:27 10° NNW 05:19:44 70° ENE 05:22:02 34° SE
Meteor 1-22 Rocket 4.2 05:15:07 10° N 05:20:51 84° E 05:24:08 28° SSE
Cosmos 2266 Rocket 4.2 05:15:24 11° S 05:21:34 76° W 05:27:59 10° N
Cosmos 1980 Rocket 4.2 05:18:10 10° NW 05:22:20 21° W 05:26:27 10° SSW
Cosmos 1655 Rocket 4.0 05:19:20 21° S 05:23:48 77° E 05:30:13 10° N
Cosmos 1315 Rocket 4.4 05:24:58 20° ENE 05:24:58 20° ENE 05:27:24 10° NE
Cosmos 2322 Rocket 2.6 05:18:51 10° NNW 05:24:23 51° ENE 05:26:46 32° ESE
Spot 2 Rocket 3.4 05:22:35 33° SSE 05:24:56 83° ENE 05:30:02 10° N
Cosmos 1908 4.4 05:22:31 10° NNW 05:25:50 35° W 05:27:39 21° SW
Aureole 3 3.8 05:27:56 39° E 05:28:07 39° E 05:32:14 10° NNE
Cosmos 1953 4.4 05:27:57 10° NE 05:29:44 14° ENE 05:29:44 14° ENE
Cosmos 1862 Rocket 3.5 05:32:16 47° SSE 05:33:17 63° E 05:37:40 10° NNE
Meteor 2-10 Rocket 3.5 05:29:54 10° N 05:35:27 85° E 05:37:36 38° SSE
Terra 2.0 05:33:36 32° S 05:35:39 65° W 05:40:21 10° NNW
Cosmos 2278 4.0 05:30:39 10° NNW 05:36:16 59° WSW 05:38:57 30° S
USA 234 4.2 05:31:12 10° NE 05:37:25 48° NW 05:43:36 10° WSW
Cosmos 807 4.3 05:38:48 75° ENE 05:38:48 75° ENE 05:41:47 10° N
Meteor 1-21 4.2 05:36:20 31° S 05:39:16 79° E 05:45:05 10° NNE
SL-27 R/B 2.8 05:40:47 47° NW 05:40:47 47° NW 05:43:06 10° N
Landsat 5 3.3 05:37:26 10° NNE 05:41:30 73° ESE 05:42:09 59° SSE
Okean 3 3.3 05:44:40 63° SE 05:45:02 68° E 05:49:11 10° NNE
SL-14 R/B 4.0 05:47:52 34° SW 05:49:05 47° W 05:52:45 10° N
Ariane Rocket 3.3 05:47:41 35° SSW 05:49:41 61° W 05:54:44 10° NNW
Cosmos 2219 Rocket 3.3 05:44:44 10° N 05:49:49 33° ENE 05:51:37 27° E
Landsat 4 4.1 05:51:47 46° WSW 05:51:56 46° W 05:55:16 10° NNW
Meteor 1-4 Rocket 3.6 05:53:21 30° NNE 05:53:21 30° NNE 05:55:02 10° NNE
Cosmos 1707 Rocket 4.0 05:52:13 35° SW 05:53:52 60° W 05:58:16 10° N
BREEZE-M DEB (TANK) 4.1 05:52:03 10° NNW 05:54:04 25° NE 05:54:33 24° NE
SJ 16-02 1.1 05:53:27 62° SSW 05:54:09 89° ESE 05:58:30 10° NNE
Cosmos 1346 Rocket 2.8 05:57:21 10° NNW 06:01:12 69° W 06:01:14 69° WSW
RESURS DK-1 2.8 06:02:46 10° NW 06:06:42 49° WSW 06:06:46 49° WSW
COSMOS 2455 4.0 06:07:47 26° E 06:07:47 26° E 06:11:51 10° NE
ARIANE 5 R/B 3.7 06:08:40 30° ENE 06:08:40 30° ENE 06:12:24 10° N
CZ-4C R/B 3.9 06:13:09 14° ENE 06:13:09 14° ENE 06:14:14 10° ENE
SL-08 R/B 4.4 06:10:00 51° SSE 06:11:24 65° E 06:17:25 10° NNE
Cosmos 2360 Rocket 2.1 06:08:54 10° NNW 06:14:35 79° WSW 06:15:45 58° S
Cosmos 1455 3.4 06:15:35 10° N 06:17:48 32° NNE 06:17:48 32° NNE
Cosmos 1733 Rocket 3.8 06:15:04 10° NNW 06:19:16 44° W 06:19:50 42° WSW
SeaSat 1 3.9 06:21:46 23° SW 06:22:46 25° WSW 06:26:47 10° NW
ATLAS 2AS CENTAUR R/B 2.5 06:16:22 10° NNW 06:23:10 87° ENE 06:24:53 53° SE
Okean 1-7 3.1 06:24:31 69° W 06:24:34 69° W 06:28:53 10° N
SL-16 R/B 3.5 06:20:33 10° NW 06:25:20 29° WSW 06:26:57 25° SW
Cosmos 2333 Rocket 2.3 06:22:28 10° NNW 06:28:11 67° WSW 06:29:07 57° SSW
GP-B 3.4 06:26:54 10° N 06:30:43 57° NE 06:30:43 57° NE
Cosmos 1908 Rocket 3.7 06:28:54 10° N 06:32:43 65° NNE 06:32:43 65° NNE
USA 281 3.4 06:32:33 45° ESE 06:34:21 61° ENE 06:40:50 10° NNW
Cosmos 1814 Rocket 4.0 06:30:00 10° NNW 06:35:18 72° WSW 06:35:43 68° SW
Atlas Centaur 2 3.6 06:31:49 10° W 06:38:43 36° SSW 06:38:43 36° SSW
Cosmos 2237 Rocket 4.1 06:45:08 10° N 06:49:04 19° NE 06:51:07 16° E
Cosmos 2227 Rocket 4.1 06:52:28 16° E 06:52:28 16° E 06:54:36 10° ENE
Cosmos 2322 3.8 06:46:18 10° NNW 06:51:55 60° ENE 06:52:24 58° E
Cosmos 1745 Rocket 3.9 06:53:20 67° S 06:54:19 88° E 07:00:42 10° N
Cosmos 1300 Rocket 4.4 06:50:08 10° N 06:53:24 42° NE 06:53:24 42° NE
Cosmos 2208 Rocket 4.4 06:49:29 10° N 06:54:31 49° ENE 06:54:33 49° ENE
ALOS 2 3.8 07:00:33 34° NE 07:00:33 34° NE 07:03:56 10° N
Cosmos 1953 4.0 07:02:27 10° NNW 07:04:51 27° WNW 07:04:51 27° WNW
Cosmos 2322 Rocket 3.9 07:03:57 10° NW 07:07:58 20° W 07:08:34 20° WSW
Cosmos 839 Rocket 4.1 07:01:55 10° NW 07:08:20 60° WSW 07:08:45 59° SW
Nadezhda 1 Rocket 3.8 07:02:07 10° N 07:08:24 82° W 07:09:03 72° SSW
Cosmos 2297 Rocket 2.6 07:11:26 50° E 07:11:26 50° E 07:16:11 10° NNE
CENTAUR R/B 3.7 07:20:44 24° E 07:20:44 24° E 07:24:21 10° NE
Meteor 2-5 Rocket 3.8 07:24:15 72° E 07:24:15 72° E 07:30:05 10° NNE
BlueWalker 3 4.0 07:23:59 23° NW 07:24:29 24° NNW 07:27:35 10° NNE
Cosmos 2242 Rocket 4.3 07:25:41 54° NNW 07:25:41 54° NNW 07:29:23 10° N
Cosmos 1486 Rocket 4.2 07:26:40 65° WNW 07:26:40 65° WNW 07:31:41 10° NNE
Cosmos 371 Rocket 3.7 07:29:04 61° NNW 07:29:04 61° NNW 07:33:10 10° NNE
COSMOS 2428 2.7 07:27:43 10° NNW 07:33:09 75° W 07:33:09 75° W
H-2A R/B 3.7 07:34:51 38° NW 07:34:51 38° NW 07:37:48 10° NNW
Cosmos 2219 Rocket 3.3 07:28:41 10° NW 07:33:19 32° W 07:33:19 32° W
Cosmos 1354 Rocket 4.2 07:42:02 65° NE 07:42:02 65° NE 07:46:39 10° NNE
Cosmos 2263 Rocket 4.1 07:45:28 17° E 07:45:28 17° E 07:48:05 10° ENE
COSMOS 2455 3.7 07:50:53 36° W 07:52:30 44° WNW 07:58:16 10° NNE
NOSS 0 Rocket 3.8 07:47:39 10° NNW 07:53:56 80° WSW 07:54:00 80° WSW
CZ-4C R/B 2.9 07:58:10 36° WNW 07:58:35 36° NW 08:03:29 10° NNE
NOSS 3-2 (A) 4.2 08:06:19 32° E 08:06:19 32° E 08:10:09 10° NE
Okean 1 Rocket 4.3 08:01:55 10° N 08:05:03 36° NE 08:05:03 36° NE
Cosmos 2184 Rocket 3.9 08:07:26 72° ESE 08:07:47 74° E 08:14:08 10° N
SL-12 R/B(2) 4.1 08:08:53 61° S 08:10:22 74° ESE 08:19:32 10° NE
Cosmos 2098 Rocket 4.0 08:04:19 10° NNW 08:10:52 66° W 08:11:08 65° WSW
SL-4 R/B 3.4 08:16:39 10° NW 08:19:46 38° N 08:19:46 38° N
Cosmos 332 Rocket 4.3 08:22:36 55° NNW 08:22:36 55° NNW 08:26:48 10° N
Cosmos 2154 Rocket 3.8 08:24:17 78° SE 08:24:38 81° E 08:30:55 10° N
SL-16 R/B 3.5 08:21:15 10° N 08:26:23 34° ENE 08:28:23 26° E
Cosmos 990 Rocket 4.1 08:28:19 69° NNE 08:28:19 69° NNE 08:32:49 10° NNE
Cosmos 1825 4.4 08:30:09 20° NNW 08:30:09 20° NNW 08:31:27 10° N
H-2A R/B 3.2 08:25:00 10° N 08:28:00 37° NNW 08:28:00 37° NNW
Cosmos 2082 4.3 08:32:57 45° E 08:32:57 45° E 08:37:56 10° NE
Cosmos 2237 Rocket 2.4 08:27:59 10° NNW 08:32:55 57° WNW 08:32:55 57° WNW
Cosmos 2227 Rocket 2.4 08:34:15 58° WNW 08:34:29 58° WNW 08:40:05 10° NNE
IDEFIX/ARIANE 42P 4.5 08:34:15 10° NE 08:37:46 18° E 08:38:13 18° E
Cosmos 1455 Rocket 4.1 08:38:59 10° N 08:42:43 42° ENE 08:42:43 42° ENE
Okean 2 Rocket 4.4 08:39:36 10° NNW 08:42:29 33° NW 08:42:29 33° NW
GEOS 3 Rocket 4.3 08:41:43 10° NNE 08:46:35 45° NW 08:47:19 42° WNW
Cosmos 1980 4.4 08:41:16 10° NW 08:45:41 40° W 08:45:41 40° W
CZ-2D R/B 4.2 08:44:49 10° NE 08:47:55 16° E 08:48:55 15° ESE
Cosmos 1538 Rocket 4.2 08:43:09 10° NNW 08:48:20 62° ENE 08:48:32 62° E
Meteor 1-21 Rocket 4.1 08:50:20 85° S 08:50:31 90° E 08:56:16 10° N
Cosmos 1025 Rocket 3.9 08:54:33 46° NNW 08:54:33 46° NNW 08:57:47 10° N
Cosmos 2297 Rocket 4.0 08:53:11 18° W 08:55:03 21° NW 08:59:18 10° N
Cosmos 2219 3.2 08:57:02 70° W 08:57:16 70° WNW 09:02:53 10° NNE
Cosmos 1610 Rocket 4.5 08:59:32 63° WSW 09:00:16 68° W 09:06:38 10° N
Cosmos 372 Rocket 4.1 09:02:01 65° E 09:02:01 65° E 09:07:04 10° NNE
Aureole 1 Rocket 4.1 09:05:11 36° N 09:05:11 36° N 09:07:49 10° NNE
Helios 1A Rocket 3.8 09:08:46 43° NNE 09:08:46 43° NNE 09:11:34 10° N
CENTAUR R/B 3.1 09:07:50 36° W 09:09:23 44° NW 09:15:49 10° NNE
Cosmos 1461 3.9 09:11:56 41° NE 09:11:56 41° NE 09:14:37 10° NE
ADEOS II 4.1 09:10:01 10° NE 09:13:31 18° E 09:15:11 16° ESE
Cosmos 2341 Rocket 3.9 09:12:42 61° SSE 09:13:47 76° E 09:20:00 10° N
CRYOSAT 2 4.3 09:09:33 10° N 09:14:17 82° NNW 09:14:17 82° NNW
USA 238 DEB 4.4 09:16:15 32° SE 09:17:09 34° ESE 09:22:50 10° NE
USA 238 4.4 09:16:17 32° SE 09:17:12 33° ESE 09:22:52 10° NE
Cosmos 1937 Rocket 3.4 09:18:39 79° SE 09:18:51 81° ESE 09:24:08 10° NNE
MOZ.5/SAFIR/RUBIN 5/SL-8 4.3 09:18:28 49° E 09:19:02 52° ENE 09:23:32 10° N
Cosmos 1898 Rocket 3.5 09:22:25 66° W 09:22:34 67° WNW 09:27:44 10° NNE
Cosmos 1339 Rocket 4.4 09:17:05 10° N 09:23:29 77° W 09:24:38 60° SSW
Meteor 2-1 Rocket 4.3 09:17:49 10° N 09:23:43 75° E 09:25:02 54° SSE
Resurs 1-4 Rocket 2.9 09:22:23 10° NNE 09:27:19 39° E 09:28:26 35° SE
Cosmos 2263 Rocket 2.4 09:27:08 52° W 09:27:50 55° WNW 09:33:19 10° NNE
Cosmos 1869 3.7 09:38:08 10° N 09:41:04 54° N 09:41:04 54° N
Cosmos 1821 Rocket 4.2 09:44:40 39° SSE 09:46:53 62° E 09:52:55 10° NNE
Cosmos 1844 Rocket 3.5 09:45:59 32° SE 09:47:35 39° ESE 09:52:43 10° NE
Cosmos 1437 Rocket 3.7 09:47:29 38° E 09:47:36 38° E 09:51:09 10° NNE
ALOS 4.3 09:46:13 10° NE 09:49:35 20° E 09:51:42 15° SE
Cosmos 2218 Rocket 3.9 09:48:21 51° SSW 09:49:56 72° W 09:56:09 10° N
Cosmos 1544 Rocket 3.4 09:50:29 10° N 09:54:55 79° W 09:55:05 78° SW
Cosmos 2366 rocket 4.1 09:55:02 46° SW 09:56:40 60° W 10:02:51 10° N
Cosmos 2228 2.9 09:53:42 10° N 09:58:02 80° E 09:58:31 68° SSE
Cosmos 1680 Rocket 3.4 09:53:19 10° NNW 09:58:34 84° ENE 10:00:26 41° SSE
Cosmos 2112 Rocket 4.1 09:55:40 10° NNW 10:00:51 74° ENE 10:03:19 31° SSE
Cosmos 1818 3.6 09:55:47 10° NNW 10:01:16 79° ENE 10:05:15 19° SE
NOSS 3-2 (C) 3.4 10:00:07 43° WSW 10:01:31 57° NW 10:07:21 10° NNE
MSX 3.8 10:00:59 10° N 10:06:43 78° WNW 10:08:36 44° SSW
COSMOS 2441 4.4 10:02:16 10° NNE 10:07:04 71° ESE 10:08:25 46° S
USA 267 3.5 10:02:19 10° NE 10:08:44 56° SE 10:11:21 35° S
BREEZE-M DEB (TANK) 4.2 10:07:17 10° NW 10:08:03 15° NW 10:08:03 15° NW
SL-16 R/B 3.0 10:05:25 10° NW 10:10:12 32° W 10:10:12 32° W
H-2A R/B 3.5 10:07:48 10° N 10:11:42 55° WNW 10:11:52 54° W
IDEFIX/ARIANE 42P 2.9 10:12:28 10° N 10:17:31 50° WNW 10:18:57 39° WSW
SEDSat Delta rocket 4.3 10:20:59 23° SE 10:20:59 23° SE 10:23:09 10° ESE
CZ-2C R/B 2.5 10:18:45 37° S 10:20:51 74° WSW 10:26:14 10° NNW
SL-16 R/B 3.3 10:14:51 10° SE 10:20:52 52° ENE 10:26:54 10° N
CZ-2C R/B 3.0 10:18:38 10° N 10:24:01 76° WNW 10:25:53 40° SSW
Cosmos 1943 3.1 10:19:36 10° NNW 10:25:14 83° WSW 10:29:23 19° SSE
GRACE-FO 1 4.3 10:25:33 72° SSW 10:25:53 84° W 10:29:26 10° N
GRACE-FO 2 4.3 10:26:00 72° SSW 10:26:18 83° W 10:29:52 10° N
CZ-2D R/B 2.3 10:23:04 10° N 10:28:17 58° WNW 10:30:12 37° SW
Cosmos 1606 4.4 10:26:08 10° NW 10:27:48 18° WNW 10:27:48 18° WNW
Cosmos 1606 Rocket 3.9 10:26:03 10° N 10:30:28 62° E 10:33:15 21° SSE
Cosmos 921 Rocket 3.7 10:26:36 10° N 10:30:43 50° ENE 10:34:31 11° SSE
FENGYUN 3A 3.6 10:26:29 10° NNE 10:31:54 85° WNW 10:34:26 33° SSW
Cosmos 1536 Rocket 4.2 10:32:33 35° WSW 10:33:19 38° WNW 10:37:27 10° N
ASTEX 1 3.5 10:31:48 22° SSE 10:34:57 73° E 10:39:49 10° N
Iridium 2 3.5 10:40:08 43° E 10:40:12 43° E 10:42:34 10° NNE
Cosmos 1125 Rocket 4.0 10:38:11 23° S 10:41:20 57° ESE 10:46:30 10° NNE
CZ-2C R/B 4.4 10:40:33 10° NE 10:43:59 21° E 10:47:25 10° SE
Cosmos 1867 3.9 10:41:52 29° WSW 10:44:25 54° NW 10:49:47 10° NNE
Cosmos 1726 Rocket 3.8 10:41:30 10° N 10:45:56 68° E 10:49:33 15° SSE
Cosmos 1812 4.0 10:42:42 10° N 10:46:02 35° E 10:49:19 10° SSE
Cosmos 2058 3.6 10:48:10 18° SSE 10:50:55 49° E 10:54:51 10° NNE
Cosmos 494 Rocket 3.9 10:45:41 10° NNW 10:50:57 87° WSW 10:56:12 10° SSE
Cosmos 1727 Rocket 4.3 10:45:07 10° NNW 10:51:13 51° W 10:55:03 23° SSW
ADEOS II 2.4 10:48:19 10° N 10:53:23 51° WNW 10:56:03 26° SW
SAR-Lupe-4 3.5 10:51:34 10° NNE 10:55:07 79° ESE 10:56:48 29° S
IRAS Rocket 4.2 10:53:31 10° NNE 10:59:01 83° ESE 11:03:12 18° SSW
Cosmos 1844 4.0 10:57:17 25° SW 11:00:34 57° WNW 11:06:17 10° NNE
USA 81 4.2 10:58:56 10° N 11:04:13 76° E 11:09:28 10° S
Resurs 1-4 Rocket 3.5 11:02:42 10° NNW 11:06:51 24° WNW 11:09:29 17° WSW
USA 238 DEB 4.3 11:03:40 18° WSW 11:07:51 41° NW 11:14:05 10° NNE
USA 238 4.3 11:03:42 18° WSW 11:07:53 41° NW 11:14:09 10° NNE
Iridium 4 Rocket 3.6 11:03:27 10° N 11:07:56 64° E 11:12:49 10° S
ATLAS 5 CENTAUR R/B 2.5 11:06:37 15° SSE 11:08:38 26° ESE 11:11:29 10° ENE
UNK 3.7 11:04:46 10° SSE 11:09:23 86° ENE 11:13:59 10° NNW
Meteor 1-28 Rocket 3.6 11:10:01 27° SW 11:11:22 38° W 11:14:42 10° NNW
Timation 2 Rocket 4.1 11:08:51 18° SSW 11:14:01 85° WNW 11:20:29 10° NNE
Cosmos 1544 2.6 11:13:19 21° S 11:14:49 61° E 11:17:25 10° NNE
Delta 2 Rocket 3.5 11:18:28 16° W 11:21:25 48° SSW 11:25:38 10° ESE
Cosmos 1892 Rocket 4.2 11:19:49 20° SW 11:22:25 40° WNW 11:26:35 10° N
Cosmos 2058 Rocket 3.0 11:19:57 10° N 11:24:24 86° W 11:28:46 10° S
ALOS 3.0 11:22:38 10° N 11:26:51 36° WNW 11:30:00 16° SW
NOAA 11 4.2 11:22:03 10° NNE 11:27:34 86° ESE 11:33:01 10° SSW
Cosmos 1844 Rocket 3.9 11:27:38 13° WSW 11:31:31 27° WNW 11:36:13 10° N
NOSS 2-3 (D) 4.1 11:29:16 11° S 11:32:39 40° ESE 11:36:11 10° NE
METEOR-M 4.1 11:28:57 10° N 11:34:17 75° WNW 11:39:36 10° SSW
Cosmos 2298 Rocket 4.0 11:29:42 11° SSW 11:34:45 85° WNW 11:40:06 10° NNE
Cosmos 1607 4.0 11:38:08 10° NW 11:44:24 61° WSW 11:50:31 10° SSE
Cosmos 1605 Rocket 4.2 11:42:26 10° SSW 11:48:31 56° W 11:54:33 10° N
CZ-4 R/B 4.1 11:44:03 10° N 11:48:53 57° WNW 11:53:44 10° SSW
Cosmos 1626 Rocket 3.6 11:44:43 10° SSW 11:49:07 67° W 11:53:32 10° N
NOSS 2-2 (C) 3.0 11:46:57 12° SW 11:50:02 59° WNW 11:53:06 10° NNE
USA 267 4.1 11:45:29 10° NE 11:51:34 43° NNW 11:57:37 10° WSW
Cosmos 2278 Rocket 3.6 11:48:46 10° S 11:53:54 37° ESE 11:59:04 10° NE
H-2A R/B 3.3 11:49:01 10° NNE 11:54:03 43° E 11:58:55 10° S
Cosmos 1862 3.9 11:50:59 10° S 11:54:42 55° E 11:58:26 10° NNE
